GW1210 Weather Reports


time (UTC)temp
C
wind
direction
speed
KPH
gust
KPH
rain 1hr
cm
rain 24hr
cm
rain mn
cm
humidity
%
barometer
mb
20260504202522 18 156 11.3 16.1 0.00 0.00 0.00 56 1009.6
20260504202019 18 146 12.9 22.5 0.00 0.00 0.00 56 1009.7
20260504201516 18 202 8.0 16.1 0.00 0.00 0.00 57 1009.8
20260504201014 18 192 9.7 12.9 0.00 0.00 0.00 56 1010.0
20260504200510 18 167 6.4 8.0 0.00 0.00 0.00 57 1009.7
20260504200006 17 252 11.3 17.7 0.00 0.00 0.00 57 1009.9
20260504195502 18 168 8.0 16.1 0.00 0.00 0.00 56 1009.6
20260504194954 18 192 9.7 12.9 0.00 0.00 0.00 56 1010.0
20260504194450 18 304 8.0 9.7 0.00 0.00 0.00 57 1009.8
20260504193946 18 190 9.7 20.9 0.00 0.00 0.00 56 1010.1
20260504193443 18 274 9.7 12.9 0.00 0.00 0.00 56 1010.0
20260504192942 18 207 16.1 20.9 0.00 0.00 0.00 56 1010.1
20260504192439 18 117 11.3 16.1 0.00 0.00 0.00 55 1010.0
20260504191938 18 330 8.0 14.5 0.00 0.00 0.00 55 1010.1
20260504191435 18 213 8.0 11.3 0.00 0.00 0.00 54 1010.2
20260504190936 18 190 22.5 24.1 0.00 0.00 0.00 53 1010.1
20260504190432 18 206 6.4 9.7 0.00 0.00 0.00 52 1010.1
20260504185928 19 177 9.7 12.9 0.00 0.00 0.00 51 1010.0
20260504185426 19 196 14.5 16.1 0.00 0.00 0.00 50 1010.3
20260504184921 19 181 8.0 11.3 0.00 0.00 0.00 51 1010.5
20260504184418 19 230 16.1 22.5 0.00 0.00 0.00 49 1010.5
20260504183914 19 215 9.7 11.3 0.00 0.00 0.00 50 1010.4
20260504183411 19 186 11.3 12.9 0.00 0.00 0.00 50 1010.3
20260504182909 20 241 6.4 8.0 0.00 0.00 0.00 51 1010.2
20260504182406 19 157 4.8 4.8 0.00 0.00 0.00 48 1010.3
20260504181902 19 322 9.7 12.9 0.00 0.00 0.00 48 1010.4
20260504181400 20 219 14.5 22.5 0.00 0.00 0.00 45 1010.4
20260504180859 20 140 6.4 11.3 0.00 0.00 0.00 47 1010.6
20260504180357 20 174 6.4 9.7 0.00 0.00 0.00 48 1010.5
20260504175855 20 177 6.4 9.7 0.00 0.00 0.00 50 1010.6
20260504175351 20 107 14.5 24.1 0.00 0.00 0.00 47 1010.5
20260504174849 20 339 4.8 8.0 0.00 0.00 0.00 48 1010.6
20260504174346 20 162 8.0 14.5 0.00 0.00 0.00 50 1010.5
20260504173843 19 180 16.1 22.5 0.00 0.00 0.00 48 1010.7
20260504173340 19 244 4.8 8.0 0.00 0.00 0.00 49 1010.8
20260504172837 19 230 9.7 17.7 0.00 0.00 0.00 48 1011.0
20260504172334 20 203 8.0 11.3 0.00 0.00 0.00 49 1010.9
20260504171829 20 268 6.4 8.0 0.00 0.00 0.00 48 1011.0
20260504171327 19 114 6.4 9.7 0.00 0.00 0.00 49 1010.7
20260504170824 18 243 8.0 9.7 0.00 0.00 0.00 47 1011.1
20260504170321 18 302 8.0 11.3 0.00 0.00 0.00 50 1011.0
20260504160239 18 322 6.4 9.7 0.00 0.00 0.00 45 1011.7
20260504150704 17 298 8.0 11.3 0.00 0.00 0.00 43 1012.6
20260504150201 18 199 12.9 16.1 0.00 0.00 0.00 43 1012.5
20260504141130 17 304 4.8 9.7 0.00 0.00 0.00 48 1012.6
20260504140627 17 300 6.4 9.7 0.00 0.00 0.00 48 1012.8
20260504140123 16 230 8.0 11.3 0.00 0.00 0.00 48 1012.6
20260504130551 15 257 3.2 4.8 0.00 0.00 0.00 57 1013.3
20260504110438 10 322 1.6 3.2 0.00 0.00 0.00 63 1013.4
20260504100355 9 239 8.0 9.7 0.00 0.00 0.00 63 1013.2
20260504081748 10 332 3.2 3.2 0.00 0.00 0.00 54 1012.9
20260504081245 10 275 4.8 4.8 0.00 0.00 0.00 53 1012.6
20260504080741 10 327 3.2 3.2 0.00 0.00 0.00 54 1012.8
20260504080238 10 335 1.6 1.6 0.00 0.00 0.00 54 1012.7
20260504070205 10 287 3.2 3.2 0.00 0.00 0.00 56 1012.3
20260504060126 10 297 3.2 3.2 0.00 0.00 0.00 57 1012.2
20260504050554 8 325 0.0 1.6 0.00 0.00 0.00 65 1012.0
20260504045548 8 343 1.6 1.6 0.00 0.00 0.00 68 1012.0
20260504045043 7 352 0.0 0.0 0.00 0.00 0.00 72 1012.0
20260504044541 6 352 0.0 0.0 0.00 0.00 0.00 74 1012.0
20260504044037 6 330 0.0 1.6 0.00 0.00 0.00 78 1011.9
20260504043534 5 357 0.0 0.0 0.00 0.00 0.00 77 1011.9
20260504043032 5 355 0.0 0.0 0.00 0.00 0.00 76 1011.8
20260504042529 6 355 0.0 0.0 0.00 0.00 0.00 76 1011.6
20260504042026 6 356 0.0 0.0 0.00 0.00 0.00 76 1012.0
20260504041521 6 356 0.0 0.0 0.00 0.00 0.00 76 1011.9
20260504041018 6 355 0.0 0.0 0.00 0.00 0.00 75 1012.0
20260504040515 6 355 0.0 0.0 0.00 0.00 0.00 75 1011.8
20260504040012 6 355 0.0 0.0 0.00 0.00 0.00 74 1011.9
20260504035509 6 355 0.0 0.0 0.00 0.00 0.00 74 1011.9
20260504035005 6 355 0.0 0.0 0.00 0.00 0.00 73 1012.0
20260504034503 6 355 0.0 0.0 0.00 0.00 0.00 73 1011.5
20260504034000 6 354 0.0 0.0 0.00 0.00 0.00 72 1011.8
20260504033457 6 354 0.0 0.0 0.00 0.00 0.00 72 1011.9
20260504032955 6 355 0.0 0.0 0.00 0.00 0.00 71 1011.7
20260504032451 6 356 0.0 0.0 0.00 0.00 0.00 71 1011.7
20260504031948 6 354 0.0 0.0 0.00 0.00 0.00 70 1011.7
20260504031445 6 354 0.0 0.0 0.00 0.00 0.00 71 1011.6
20260504030942 6 354 0.0 0.0 0.00 0.00 0.00 69 1011.7
20260504030439 7 354 0.0 0.0 0.00 0.00 0.00 69 1011.8
20260504025935 7 355 0.0 0.0 0.00 0.00 0.00 68 1011.7
20260504025432 7 352 0.0 0.0 0.00 0.00 0.00 68 1011.5
20260504024929 7 352 0.0 0.0 0.00 0.00 0.00 68 1011.6
20260504024426 7 354 0.0 0.0 0.00 0.00 0.00 66 1011.7
20260504023923 7 354 0.0 0.0 0.00 0.00 0.00 65 1011.8
20260504023419 7 354 0.0 0.0 0.00 0.00 0.00 66 1011.5
20260504022915 7 352 0.0 0.0 0.00 0.00 0.00 66 1011.7
20260504022412 7 352 0.0 0.0 0.00 0.00 0.00 64 1011.6
20260504021908 8 352 0.0 0.0 0.00 0.00 0.00 63 1011.7
20260504021406 8 352 0.0 0.0 0.00 0.00 0.00 61 1011.8
20260504020903 8 352 0.0 0.0 0.00 0.00 0.00 60 1011.7
20260504020359 8 352 0.0 0.0 0.00 0.00 0.00 61 1011.5
20260504015855 8 352 0.0 0.0 0.00 0.00 0.00 60 1011.7
20260504015351 8 352 0.0 0.0 0.00 0.00 0.00 59 1011.6
20260504014848 9 352 0.0 0.0 0.00 0.00 0.00 58 1011.5
20260504014343 9 352 0.0 0.0 0.00 0.00 0.00 56 1011.7
20260504013841 9 353 0.0 0.0 0.00 0.00 0.00 55 1011.5
20260504013339 9 352 0.0 0.0 0.00 0.00 0.00 55 1011.6
20260504012836 9 352 0.0 0.0 0.00 0.00 0.00 55 1011.5
20260504012334 9 352 0.0 0.0 0.00 0.00 0.00 55 1011.3
20260504011831 10 352 0.0 0.0 0.00 0.00 0.00 51 1011.1
20260504011327 10 352 0.0 0.0 0.00 0.00 0.00 52 1011.3
20260504010823 10 352 0.0 0.0 0.00 0.00 0.00 51 1011.1
20260504010319 10 352 0.0 0.0 0.00 0.00 0.00 50 1011.2
20260504005815 10 352 0.0 0.0 0.00 0.00 0.00 48 1011.1
20260504005313 11 352 0.0 0.0 0.00 0.00 0.00 46 1010.9
20260504004810 11 352 0.0 0.0 0.00 0.00 0.00 44 1010.9
20260504004308 11 351 0.0 0.0 0.00 0.00 0.00 45 1010.8
20260504003804 11 352 0.0 0.0 0.00 0.00 0.00 44 1010.9
20260504003301 11 351 0.0 0.0 0.00 0.00 0.00 43 1010.6
20260504002757 12 350 0.0 0.0 0.00 0.00 0.00 40 1010.7
20260504002254 12 350 0.0 0.0 0.00 0.00 0.00 40 1010.5
20260504001752 12 349 0.0 0.0 0.00 0.00 0.00 38 1010.6
20260504001249 12 348 1.6 1.6 0.00 0.00 0.00 37 1010.5
20260504000746 12 347 0.0 0.0 0.00 0.00 0.00 37 1010.3
20260504000243 13 314 1.6 1.6 0.00 0.00 0.00 36 1010.3
20260503235741 13 351 0.0 0.0 0.00 0.00 0.00 36 1010.3
20260503235237 13 346 1.6 1.6 0.00 0.00 0.00 35 1010.1
20260503234735 13 340 1.6 1.6 0.00 0.00 0.00 35 1010.1
20260503234233 13 317 3.2 3.2 0.00 0.00 0.00 34 1010.0
20260503233730 13 325 6.4 9.7 0.00 0.00 0.00 34 1010.0
20260503233225 13 323 4.8 4.8 0.00 0.00 0.00 34 1009.8
20260503232723 14 343 1.6 3.2 0.00 0.00 0.00 33 1010.0
20260503232220 14 314 3.2 3.2 0.00 0.00 0.00 33 1009.8
20260503231719 14 335 3.2 4.8 0.00 0.00 0.00 32 1009.8
20260503231215 15 311 4.8 8.0 0.00 0.00 0.00 31 1009.7
20260503230711 15 346 8.0 11.3 0.00 0.00 0.00 31 1009.8
20260503230208 15 340 4.8 4.8 0.00 0.00 0.00 32 1009.7
20260503225705 15 338 4.8 8.0 0.00 0.00 0.00 32 1009.4
20260503225159 15 340 3.2 3.2 0.00 0.00 0.00 31 1009.7
20260503224658 15 339 3.2 3.2 0.00 0.00 0.00 31 1009.7
20260503224155 15 341 8.0 9.7 0.00 0.00 0.00 30 1009.5
20260503223653 15 349 9.7 12.9 0.00 0.00 0.00 31 1009.6
20260503223149 15 327 9.7 11.3 0.00 0.00 0.00 30 1009.6
20260503222646 15 324 8.0 9.7 0.00 0.00 0.00 30 1009.5
20260503222144 15 327 12.9 17.7 0.00 0.00 0.00 30 1009.6
20260503221642 15 304 11.3 16.1 0.00 0.00 0.00 30 1009.5
20260503221139 15 339 14.5 20.9 0.00 0.00 0.00 30 1009.6
20260503220636 15 315 11.3 12.9 0.00 0.00 0.00 31 1009.6
20260503220132 15 346 14.5 16.1 0.00 0.00 0.00 30 1009.5
20260503215630 15 330 6.4 11.3 0.00 0.00 0.00 31 1009.5
20260503215126 15 347 12.9 16.1 0.00 0.00 0.00 31 1009.4
20260503214625 15 299 9.7 14.5 0.00 0.00 0.00 31 1009.4
20260503214121 15 255 17.7 24.1 0.00 0.00 0.00 31 1009.7
20260503213620 14 334 11.3 12.9 0.00 0.00 0.00 31 1009.3
20260503213116 15 284 8.0 12.9 0.00 0.00 0.00 32 1009.2
20260503212614 15 310 16.1 22.5 0.00 0.00 0.00 31 1009.3
20260503212111 15 312 11.3 16.1 0.00 0.00 0.00 32 1009.0
20260503211609 15 298 17.7 22.5 0.00 0.00 0.00 31 1009.0
20260503211103 15 305 9.7 12.9 0.00 0.00 0.00 33 1009.4
20260503210600 14 324 8.0 11.3 0.00 0.00 0.00 32 1009.2
20260503210056 14 291 8.0 12.9 0.00 0.00 0.00 33 1009.3
20260503205553 15 1 8.0 14.5 0.00 0.00 0.00 33 1009.1
20260503205049 14 324 12.9 16.1 0.00 0.00 0.00 33 1009.2
20260503204546 14 334 22.5 27.4 0.00 0.00 0.00 33 1009.4
20260503204043 14 315 12.9 16.1 0.00 0.00 0.00 33 1009.2
20260503203541 14 317 16.1 20.9 0.00 0.00 0.00 33 1009.2
20260503203037 14 346 8.0 11.3 0.00 0.00 0.00 33 1009.1